Salinas, CA

11:45 PM PDT on March 22, 2017 (GMT -0700)
Salinas Municipal

Weather History for KSNS - January, 2013

Change the Weather History Date:

Wednesday, January 23, 2013

  Actual Average Record
Temperature  
Mean Temperature 56 °F 52 °F  
Max Temperature 64 °F 62 °F 82 °F (1948)
Min Temperature 47 °F 42 °F 24 °F (1937)
Degree Days  
Heating Degree Days 9 13  
Month to date heating degree days 360 319  
Since 1 July heating degree days 1248 1372  
Cooling Degree Days 0 0  
Month to date cooling degree days 0 0  
Year to date cooling degree days 0 0  
Growing Degree Days 6 (Base 50)    
Moisture  
Dew Point 39 °F    
Average Humidity 58    
Maximum Humidity 83    
Minimum Humidity 32    
Precipitation  
Precipitation T in 0.08 in 2.66 in (2000)
Month to date precipitation 0.95 1.90  
Year to date precipitation 0.95 1.90  
Since 1 July precipitation 7.59  
Sea Level Pressure  
Sea Level Pressure 30.05 in    
Wind  
Wind Speed 7 mph (ENE)    
Max Wind Speed 21 mph    
Max Gust Speed 24 mph    
Visibility 10 miles    
Events Rain    
T = Trace of Precipitation, MM = Missing Value Source: NWS Daily Summary

Daily Weather History Graph

Daily Weather History Graph

Search for Another Location

Airport or City:

Trip Planner

Search our weather history database for the weather conditions in past years. The results will help you decide how hot, cold, wet, or windy it might be!

Date:

Astronomy

Jan. 23, 2013 Rise Set
Actual Time 7:14 AM PST 5:22 PM PST
Civil Twilight 6:46 AM PST 5:50 PM PST
Nautical Twilight 6:15 AM PST 6:22 PM PST
Astronomical Twilight 5:44 AM PST 6:52 PM PST
Moon 2:39 PM PST 4:28 AM PST
Length of Visible Light 11h 04m
Length of Day
10h 08m
Waxing Gibbous, 90% of the Moon is Illuminated
Jan 23
Waxing Gibbous
Jan 26
Full
Feb 3
Last Quarter
Feb 9
New
Feb 17
First Quarter

Hourly Weather History & Observations

Time (PST) Temp. Dew Point Humidity Pressure Visibility Wind Dir Wind Speed Gust Speed Precip Events Conditions
12:53 AM 50.0 °F 36.0 °F 59% 30.06 in 10.0 mi Calm Calm - N/A   Clear
1:53 AM 50.0 °F 37.0 °F 61% 30.05 in 10.0 mi ESE 3.5 mph - N/A   Clear
2:53 AM 48.9 °F 37.0 °F 64% 30.05 in 10.0 mi East 4.6 mph - N/A   Clear
3:53 AM 48.0 °F 37.0 °F 66% 30.03 in 10.0 mi SE 5.8 mph - N/A   Clear
4:53 AM 48.0 °F 36.0 °F 63% 30.01 in 10.0 mi East 3.5 mph - N/A   Clear
5:53 AM 52.0 °F 34.0 °F 50% 30.01 in 10.0 mi East 10.4 mph - N/A   Clear
6:53 AM 51.1 °F 34.0 °F 52% 30.03 in 10.0 mi East 4.6 mph - N/A   Clear
7:53 AM 50.0 °F 36.0 °F 59% 30.05 in 10.0 mi NE 6.9 mph - N/A   Clear
8:53 AM 54.0 °F 35.1 °F 49% 30.06 in 10.0 mi East 3.5 mph - N/A   Clear
9:53 AM 54.0 °F 34.0 °F 47% 30.06 in 10.0 mi East 13.8 mph - N/A   Scattered Clouds
10:53 AM 55.9 °F 35.1 °F 45% 30.06 in 10.0 mi ESE 9.2 mph - N/A   Mostly Cloudy
11:53 AM 57.9 °F 33.1 °F 39% 30.03 in 10.0 mi ESE 13.8 mph - N/A   Overcast
12:53 PM 57.9 °F 36.0 °F 44% 29.99 in 10.0 mi East 12.7 mph - N/A   Overcast
1:53 PM 60.1 °F 36.0 °F 41% 30.01 in 10.0 mi East 8.1 mph - N/A   Overcast
2:53 PM 63.0 °F 32.0 °F 31% 30.00 in 10.0 mi West 6.9 mph - N/A   Clear
3:53 PM 62.1 °F 37.0 °F 39% 30.03 in 10.0 mi West 8.1 mph - N/A   Overcast
4:53 PM 60.1 °F 36.0 °F 41% 30.04 in 10.0 mi NW 12.7 mph - N/A   Overcast
5:53 PM 57.0 °F 43.0 °F 59% 30.09 in 10.0 mi NW 9.2 mph - N/A   Overcast
6:53 PM 55.9 °F 45.0 °F 67% 30.09 in 10.0 mi NW 9.2 mph - 0.00 in Rain Light Rain
7:53 PM 55.0 °F 46.0 °F 72% 30.09 in 10.0 mi NNW 10.4 mph - 0.00 in   Overcast
8:53 PM 54.0 °F 46.9 °F 77% 30.10 in 10.0 mi NW 4.6 mph - 0.00 in Rain Light Rain
9:53 PM 53.1 °F 48.0 °F 83% 30.09 in 10.0 mi WNW 3.5 mph - 0.00 in   Mostly Cloudy
10:53 PM 51.1 °F 46.9 °F 86% 30.09 in 10.0 mi Calm Calm - N/A   Mostly Cloudy
11:53 PM 50.0 °F 46.9 °F 89% 30.07 in 10.0 mi SSE 3.5 mph - N/A   Overcast